Regional Weather Roundup
Issued by NWS

Home | Current Version | Previous Version | Graphics & Text | Print | Product List | Glossary On
Versions: 1 2 3 4 5 6 7 8 9 10 11 12 13 14 15 16 17 18 19 20 21 22 23 24 25 26 27 28 29 30 31 32 33 34 35 36 37 38 39 40 41 42 43 44 45 46 47 48 49 50
000
ASUS43 KBIS 281910
RWRND
NORTH DAKOTA REGIONAL WEATHER ROUNDUP
NATIONAL WEATHER SERVICE EASTERN NORTH DAKOTA/GRAND FORKS ND
200 PM CDT SUN MAY 28 2017

  NOTE: "FAIR" INDICATES FEW OR NO CLOUDS BELOW 12,000 FEET WITH NO
  SIGNIFICANT WEATHER AND/OR OBSTRUCTIONS TO VISIBILITY.

NDZ001>003-009>011-017-282000-
...NORTHWEST NORTH DAKOTA...

CITY           SKY/WX    TMP DP  RH WIND       PRES   REMARKS
WILLISTON      FAIR      72  35  25 N28G41    29.99R
MINOT          FAIR      69  39  33 NW33G44   29.85S
MINOT AFB      FAIR      67  39  36 NW37G43   29.84R
$$

NDZ018>021-031>035-040>046-282000-
...SOUTHWEST NORTH DAKOTA...

CITY           SKY/WX    TMP DP  RH WIND       PRES   REMARKS
BISMARCK       FAIR      75  39  27 NW20G32   29.87F
DICKINSON      FAIR      72  29  20 NW35G46   29.93S
GARRISON         N/A     72  37  28 NW35G48   29.86F
HETTINGER      PTSUNNY   61  43  51 NW21G31   30.00R
$$

NDZ004>008-012>016-024-026-027-054-282000-
...NORTHEAST NORTH DAKOTA...

CITY           SKY/WX    TMP DP  RH WIND       PRES   REMARKS
GRAND FORKS    LGT RAIN  56  50  80 NW16G30   29.72F
GRAND FORKS AF PTSUNNY   55  48  76 NW15G31   29.73F
DEVILS LAKE    LGT RAIN  57  46  66 NW15      29.77S
$$

NDZ022-023-025-028>030-036>039-047>053-282000-
...SOUTHEAST NORTH DAKOTA...

CITY           SKY/WX    TMP DP  RH WIND       PRES   REMARKS
JAMESTOWN      PTSUNNY   68  42  38 NW21G31   29.78F
FARGO          PTSUNNY   67  44  43 W21G29    29.75F
WAHPETON       FAIR      68  37  32 NW23G33   29.77F
$$




USA.gov is the U.S. government's official web portal to all federal, state and local government web resources and services.